Meteo pe oră la Bolshoe Kolesovo

Astăzi, 6 Mai, Joi

Timp Temperatura Precipitaţii Vânt Presiune Umiditate
00:00 -4°C° 0 mm 3 m/s 721 mmHg 84%
01:00 -5°C° 0 mm 3 m/s 721 mmHg 87%
02:00 -5°C° 0 mm 3 m/s 721 mmHg 88%
03:00 -5°C° 0 mm 3 m/s 721 mmHg 90%
04:00 -5°C° 0 mm 2 m/s 721 mmHg 91%
05:00 -4°C° 0 mm 3 m/s 721 mmHg 85%
06:00 -2°C° 0 mm 3 m/s 721 mmHg 79%
07:00 +1°C° 0 mm 3 m/s 721 mmHg 65%
08:00 +2°C° 0 mm 3 m/s 721 mmHg 58%
09:00 +3°C° 0 mm 3 m/s 720 mmHg 51%
10:00 +5°C° 0 mm 4 m/s 720 mmHg 44%
11:00 +5°C° 0 mm 4 m/s 719 mmHg 40%
12:00 +6°C° 0 mm 4 m/s 718 mmHg 37%
13:00 +7°C° 0 mm 4 m/s 718 mmHg 34%
14:00 +8°C° 0 mm 3 m/s 717 mmHg 33%
15:00 +8°C° 0 mm 3 m/s 716 mmHg 31%
16:00 +9°C° 0 mm 3 m/s 716 mmHg 30%
17:00 +7°C° 0 mm 3 m/s 716 mmHg 42%
18:00 +5°C° 0 mm 4 m/s 715 mmHg 54%
19:00 +3°C° 0 mm 5 m/s 715 mmHg 66%
20:00 +2°C° 0.2 mm 5 m/s 715 mmHg 75%
21:00 +2°C° 0.2 mm 5 m/s 715 mmHg 84%
22:00 +2°C° 0.2 mm 5 m/s 715 mmHg 93%
23:00 +2°C° 0.2 mm 5 m/s 714 mmHg 94%

Mâine, 7 Mai, Vineri

Timp Temperatura Precipitaţii Vânt Presiune Umiditate
00:00 +2°C° 0.2 mm 5 m/s 714 mmHg 94%
01:00 +2°C° 0.2 mm 5 m/s 714 mmHg 95%
02:00 +2°C° 0.1 mm 5 m/s 714 mmHg 90%
03:00 +2°C° 0.1 mm 6 m/s 714 mmHg 85%
04:00 +2°C° 0.1 mm 6 m/s 714 mmHg 79%
05:00 +1°C° 0 mm 6 m/s 715 mmHg 76%
06:00 +1°C° 0 mm 6 m/s 716 mmHg 73%
07:00 +1°C° 0 mm 6 m/s 716 mmHg 70%
08:00 +2°C° 0 mm 5 m/s 717 mmHg 68%
09:00 +2°C° 0 mm 5 m/s 717 mmHg 65%
10:00 +3°C° 0 mm 5 m/s 717 mmHg 63%
11:00 +5°C° 0 mm 5 m/s 717 mmHg 60%
12:00 +6°C° 0 mm 5 m/s 717 mmHg 57%
13:00 +6°C° 0 mm 5 m/s 717 mmHg 54%
14:00 +6°C° 0 mm 5 m/s 717 mmHg 55%
15:00 +6°C° 0 mm 5 m/s 717 mmHg 56%
16:00 +6°C° 0 mm 5 m/s 717 mmHg 57%
17:00 +5°C° 0 mm 4 m/s 717 mmHg 64%
18:00 +4°C° 0 mm 4 m/s 718 mmHg 72%
19:00 +3°C° 0 mm 4 m/s 718 mmHg 79%
20:00 +2°C° 0 mm 3 m/s 718 mmHg 83%
21:00 +1°C° 0 mm 3 m/s 718 mmHg 87%
22:00 +1°C° 0 mm 2 m/s 718 mmHg 92%
23:00 +1°C° 0 mm 2 m/s 718 mmHg 92%

Poimâine, 8 Mai, Sâmbătă

Timp Temperatura Precipitaţii Vânt Presiune Umiditate
00:00 -1°C° 0 mm 2 m/s 718 mmHg 92%
01:00 +1°C° 0 mm 1 m/s 718 mmHg 92%
02:00 +1°C° 0 mm 1 m/s 717 mmHg 92%
03:00 +1°C° 0 mm 1 m/s 717 mmHg 91%
04:00 +1°C° 0 mm 1 m/s 717 mmHg 91%
05:00 +3°C° 0 mm 1 m/s 717 mmHg 83%
06:00 +5°C° 0 mm 1 m/s 717 mmHg 75%
07:00 +6°C° 0 mm 2 m/s 717 mmHg 66%
08:00 +7°C° 0 mm 2 m/s 717 mmHg 61%
09:00 +8°C° 0 mm 2 m/s 717 mmHg 56%
10:00 +9°C° 0 mm 2 m/s 717 mmHg 51%
11:00 +9°C° 0 mm 3 m/s 717 mmHg 52%
12:00 +8°C° 0 mm 4 m/s 717 mmHg 52%
13:00 +8°C° 0 mm 4 m/s 717 mmHg 53%
14:00 +7°C° 0 mm 5 m/s 717 mmHg 59%
15:00 +7°C° 0 mm 5 m/s 717 mmHg 64%
16:00 +5°C° 0 mm 6 m/s 717 mmHg 70%
17:00 +5°C° 0 mm 5 m/s 717 mmHg 75%
18:00 +3°C° 0 mm 5 m/s 717 mmHg 80%
19:00 +2°C° 0 mm 5 m/s 718 mmHg 84%
20:00 +3°C° 0 mm 5 m/s 718 mmHg 85%
21:00 +4°C° 0 mm 4 m/s 718 mmHg 86%
22:00 +4°C° 0 mm 4 m/s 718 mmHg 87%
23:00 +3°C° 0 mm 4 m/s 718 mmHg 89%

9 Mai, Duminică

Timp Temperatura Precipitaţii Vânt Presiune Umiditate
00:00 +3°C° 0 mm 3 m/s 718 mmHg 92%
01:00 +2°C° 0 mm 3 m/s 718 mmHg 94%
02:00 +2°C° 0 mm 3 m/s 718 mmHg 94%
03:00 +3°C° 0 mm 3 m/s 718 mmHg 94%
04:00 +3°C° 0 mm 3 m/s 718 mmHg 94%
05:00 +3°C° 0.1 mm 3 m/s 718 mmHg 92%
06:00 +4°C° 0.1 mm 3 m/s 718 mmHg 90%
07:00 +4°C° 0.1 mm 3 m/s 718 mmHg 88%
08:00 +7°C° 0 mm 3 m/s 718 mmHg 78%
09:00 +8°C° 0 mm 3 m/s 718 mmHg 68%
10:00 +10°C° 0 mm 3 m/s 718 mmHg 58%
11:00 +11°C° 0 mm 3 m/s 717 mmHg 53%
12:00 +12°C° 0 mm 3 m/s 717 mmHg 48%
13:00 +13°C° 0 mm 3 m/s 716 mmHg 44%
14:00 +12°C° 0 mm 3 m/s 716 mmHg 46%
15:00 +13°C° 0 mm 2 m/s 716 mmHg 48%
16:00 +13°C° 0 mm 2 m/s 716 mmHg 50%
17:00 +12°C° 0 mm 2 m/s 716 mmHg 56%
18:00 +10°C° 0 mm 1 m/s 716 mmHg 62%
19:00 +9°C° 0 mm 1 m/s 716 mmHg 68%
20:00 +8°C° 0.1 mm 1 m/s 716 mmHg 72%
21:00 +7°C° 0.1 mm 1 m/s 717 mmHg 76%
22:00 +6°C° 0.1 mm 1 m/s 717 mmHg 80%
23:00 +5°C° 0.9 mm 2 m/s 717 mmHg 84%

10 Mai, Luni

Timp Temperatura Precipitaţii Vânt Presiune Umiditate
00:00 +4°C° 0.9 mm 2 m/s 717 mmHg 89%
01:00 +3°C° 0.9 mm 2 m/s 718 mmHg 94%
02:00 +3°C° 1 mm 2 m/s 718 mmHg 95%
03:00 +3°C° 1 mm 2 m/s 718 mmHg 95%
04:00 +3°C° 1 mm 2 m/s 718 mmHg 96%
05:00 +3°C° 0.9 mm 2 m/s 719 mmHg 96%
06:00 +3°C° 0.9 mm 2 m/s 719 mmHg 96%
07:00 +3°C° 0.9 mm 2 m/s 719 mmHg 97%
08:00 +3°C° 1 mm 2 m/s 720 mmHg 97%
09:00 +3°C° 1 mm 2 m/s 720 mmHg 97%
10:00 +2°C° 1 mm 3 m/s 721 mmHg 96%
11:00 +2°C° 0.3 mm 3 m/s 721 mmHg 96%
12:00 +2°C° 0.3 mm 3 m/s 721 mmHg 96%
13:00 +3°C° 0.3 mm 3 m/s 721 mmHg 95%
14:00 +3°C° 0 mm 4 m/s 722 mmHg 94%
15:00 +3°C° 0 mm 4 m/s 722 mmHg 93%
16:00 +3°C° 0 mm 4 m/s 722 mmHg 92%
17:00 +3°C° 0 mm 4 m/s 722 mmHg 93%
18:00 +3°C° 0 mm 4 m/s 722 mmHg 94%
19:00 +1°C° 0 mm 4 m/s 722 mmHg 95%
20:00 +1°C° 0 mm 4 m/s 723 mmHg 95%
21:00 +1°C° 0 mm 4 m/s 723 mmHg 94%
22:00 +1°C° 0 mm 4 m/s 723 mmHg 94%
23:00 +1°C° 0 mm 4 m/s 723 mmHg 94%

11 Mai, Marţi

Timp Temperatura Precipitaţii Vânt Presiune Umiditate
00:00 +1°C° 0 mm 4 m/s 723 mmHg 94%
01:00 +2°C° 0 mm 3 m/s 722 mmHg 94%
02:00 +1°C° 0 mm 3 m/s 722 mmHg 94%
03:00 +1°C° 0 mm 3 m/s 722 mmHg 94%
04:00 0°C° 0 mm 3 m/s 722 mmHg 94%
05:00 +2°C° 0 mm 3 m/s 722 mmHg 88%
06:00 +3°C° 0 mm 3 m/s 722 mmHg 83%
07:00 +6°C° 0 mm 2 m/s 722 mmHg 77%
08:00 +7°C° 0 mm 2 m/s 721 mmHg 71%
09:00 +9°C° 0 mm 2 m/s 721 mmHg 66%
10:00 +10°C° 0 mm 2 m/s 720 mmHg 61%
11:00 +12°C° 0 mm 2 m/s 720 mmHg 57%
12:00 +13°C° 0 mm 2 m/s 719 mmHg 53%
13:00 +13°C° 0 mm 2 m/s 719 mmHg 49%
14:00 +14°C° 0 mm 2 m/s 718 mmHg 47%
15:00 +14°C° 0 mm 2 m/s 718 mmHg 46%
16:00 +14°C° 0 mm 1 m/s 717 mmHg 45%
17:00 +12°C° 0 mm 1 m/s 717 mmHg 52%
18:00 +11°C° 0 mm 1 m/s 717 mmHg 59%
19:00 +9°C° 0 mm 1 m/s 717 mmHg 66%
20:00 +8°C° 0 mm 1 m/s 717 mmHg 68%
21:00 +6°C° 0 mm 1 m/s 717 mmHg 71%
22:00 +5°C° 0 mm 1 m/s 717 mmHg 73%
23:00 +4°C° 0 mm 1 m/s 717 mmHg 76%
Arată mai mult

Formular de consimțământ

Meteoprog și furnizorii noștri de servicii pot stoca și accesa date personale, precum cookies, identificatori de dispozitiv sau alte tehnologii similare pe dispozitivul dumneavoastră și procesa astfel de date pentru a personaliza conținutul și reclamele, dar și pentru a oferi caracteristici de social media și pentru a analiza traficul.

  • Stocarea și/sau accesarea informațiilor pe dispozitivul dumneavoastră

    Cookies, identificatori de dispozitiv sau alte informații pot fi stocate sau accesate pe dispozitiv în scopurile indicate mai sus.

  • Reclame și conținut personalizat, evaluarea reclamelor și a conținutului, informații despre audiențe și dezvoltarea produselor

    Reclamele și conținutul pot fi personalizate pe baza unui profil. Pot fi adăugate date suplimentare pentru a personaliza mai bine reclamele și conținutul. Performanța reclamelor și conținutului poate fi măsurată. Pot fi obținute informații despre utilizatorii care au văzut reclamele și conținutul. Aceste date pot fi utilizate pentru a dezvolta sau îmbunătăți experiența utilizatorilor, sistemele și software-ul.

Dând clic pe ‘Sunt de acord’, permiteți utilizarea cookie-urilor menționate, a identificatorilor de dispozitiv, balizelor web sau altor tehnologii similare. Setările pot fi modificate din browser-ul dispozitivului dumneavoastră.

În anumite scopuri, interesele legitime pot prima asupra consimțământului. Puteți citi mai multe informații în acest sens în Politica privind Confidențialitatea Datelor și Cookie.